White Plains, CT

2:53 AM EDT on October 17, 2017 (GMT -0400)
Westchester County

Weather History for KHPN - December, 2012

Change the Weather History Date:

Saturday, December 15, 2012

  Actual Average Record
Temperature  
Mean Temperature 36 °F -  
Max Temperature 45 °F 40 °F 61 °F (2008)
Min Temperature 28 °F 28 °F 9 °F (2005)
Degree Days  
Heating Degree Days 28    
Moisture  
Dew Point 28 °F    
Average Humidity 71    
Maximum Humidity 88    
Minimum Humidity 49    
Precipitation  
Precipitation 0.00 in - - ()
Sea Level Pressure  
Sea Level Pressure 30.26 in    
Wind  
Wind Speed 3 mph (NNW)    
Max Wind Speed 8 mph    
Max Gust Speed -    
Visibility 10 miles    
Events      
Averages and records for this station are not official NWS values.
T = Trace of Precipitation, MM = Missing Value Source: NWS Daily Summary

Daily Weather History Graph

Daily Weather History Graph

Search for Another Location

Airport or City:

Trip Planner

Search our weather history database for the weather conditions in past years. The results will help you decide how hot, cold, wet, or windy it might be!

Date:

Astronomy

Dec. 15, 2012 Rise Set
Actual Time 7:13 AM EST 4:27 PM EST
Civil Twilight 6:42 AM EST 4:58 PM EST
Nautical Twilight 6:07 AM EST 5:33 PM EST
Astronomical Twilight 5:33 AM EST 6:06 PM EST
Moon 9:03 AM EST (12/15) 7:29 PM EST (12/15)
Length of Visible Light 10h 16m
Length of Day
9h 14m
Waxing Crescent, 8% of the Moon is Illuminated
Dec 15
Waxing Crescent
Dec 20
First Quarter
Dec 28
Full
Jan 4
Last Quarter
Jan 11
New

Hourly Weather History & Observations

Time (EST) Temp. Windchill Dew Point Humidity Pressure Visibility Wind Dir Wind Speed Gust Speed Precip Events Conditions
12:56 AM 32.0 °F 28.7 °F 28.4 °F 87% 30.21 in 10.0 mi WNW 3.5 mph - N/A   Clear
1:56 AM 30.9 °F 27.5 °F 27.0 °F 85% 30.25 in 10.0 mi WNW 3.5 mph - N/A   Clear
2:56 AM 30.0 °F 26.5 °F 26.1 °F 85% 30.25 in 8.0 mi NW 3.5 mph - N/A   Clear
3:56 AM 30.0 °F 24.1 °F 27.0 °F 88% 30.25 in 8.0 mi NNW 5.8 mph - N/A   Clear
4:56 AM 30.9 °F 25.2 °F 27.0 °F 85% 30.26 in 9.0 mi NW 5.8 mph - N/A   Clear
5:56 AM 28.9 °F 21.1 °F 24.1 °F 82% 30.27 in 8.0 mi NNW 8.1 mph - N/A   Clear
6:56 AM 30.9 °F 25.2 °F 25.0 °F 79% 30.28 in 9.0 mi NW 5.8 mph - N/A   Clear
7:56 AM 32.0 °F 28.7 °F 26.1 °F 79% 30.30 in 7.0 mi North 3.5 mph - N/A   Clear
8:56 AM 35.6 °F - 28.4 °F 75% 30.29 in 9.0 mi Calm Calm - N/A   Clear
9:56 AM 39.9 °F - 28.0 °F 63% 30.33 in 10.0 mi Calm Calm - N/A   Clear
10:56 AM 42.1 °F - 27.0 °F 55% 30.32 in 10.0 mi Calm Calm - N/A   Clear
11:56 AM 44.1 °F 40.8 °F 27.0 °F 51% 30.30 in 10.0 mi North 5.8 mph - N/A   Clear
12:56 PM 45.0 °F - 27.0 °F 49% 30.27 in 10.0 mi Calm Calm - N/A   Clear
1:56 PM 44.1 °F - 26.1 °F 49% 30.25 in 10.0 mi Calm Calm - N/A   Clear
2:56 PM 44.1 °F - 28.0 °F 53% 30.25 in 10.0 mi Calm Calm - N/A   Clear
3:56 PM 39.9 °F 36.7 °F 28.0 °F 63% 30.25 in 10.0 mi SSE 4.6 mph - N/A   Clear
4:56 PM 37.9 °F - 28.0 °F 68% 30.25 in 10.0 mi Calm Calm - N/A   Clear
5:56 PM 37.0 °F - 28.0 °F 70% 30.25 in 10.0 mi Calm Calm - N/A   Clear
6:56 PM 37.9 °F - 28.0 °F 68% 30.26 in 10.0 mi Calm Calm - N/A   Clear
7:56 PM 39.0 °F 35.7 °F 28.0 °F 65% 30.26 in 10.0 mi East 4.6 mph - N/A   Clear
8:56 PM 37.0 °F - 28.9 °F 73% 30.26 in 10.0 mi Calm Calm - N/A   Clear
9:56 PM 37.0 °F - 30.0 °F 76% 30.25 in 10.0 mi Calm Calm - N/A   Clear
10:56 PM 37.9 °F 35.5 °F 30.0 °F 73% 30.24 in 10.0 mi East 3.5 mph - N/A   Partly Cloudy
11:56 PM 39.0 °F 34.8 °F 30.9 °F 73% 30.22 in 10.0 mi East 5.8 mph - N/A   Mostly Cloudy